Air Resources Laboratory banner image
Air Resources Laboratory web site National Oceanic and Atmospheric Administration (NOAA)

ok roundup


Office: OUN

ASUS44 KOUN 180300
RWROK

WEATHER ROUNDUP FOR OKLAHOMA
NATIONAL WEATHER SERVICE NORMAN OK
1000 PM CDT TUE JUL 17 2018

NOTE: "FAIR" INDICATES FEW OR NO CLOUDS BELOW 12,000 FEET WITH NO
      SIGNIFICANT WEATHER AND/OR OBSTRUCTIONS TO VISIBILITY.

OKZ001>007-009>012-014-015-017-180400-
NORTHWEST OKLAHOMA AND THE PANHANDLE

CITY           SKY/WX    TMP DP  RH WIND       PRES   REMARKS
GAGE           LGT RAIN  75  70  84 NE9       30.03R
GUYMON         CLOUDY    79  64  60 NE3       30.05R
$$

OKZ016-021>023-033>039-044-045-180400-
SOUTHWEST OKLAHOMA

CITY           SKY/WX    TMP DP  RH WIND       PRES   REMARKS
LAWTON/REGL    CLEAR     89  59  36 MISG      29.91R
LAWTON/FT SILL CLEAR     90  63  40 S7        29.91R HX  91
FREDERICK      CLEAR     93  58  30 S10       29.89R HX  92
CLINTON        PTCLDY    93  53  25 S10       29.95R HX  90
HOBART         PTCLDY    90  57  32 S9        29.93R
ALTUS AFB      CLEAR     87  54  32 SE7       29.92R
$$

OKZ018>020-024>031-180400-
CENTRAL OKLAHOMA

CITY           SKY/WX    TMP DP  RH WIND       PRES   REMARKS
OKLAHOMA CITY  CLOUDY    84  73  69 E12       29.95R HX  90
OKC/WILEY POST CLOUDY    87  72  60 E12       29.95R HX  93
OKC/TINKER AFB PTCLDY    82  72  71 E8        29.95R
STILLWATER     MOCLDY    83  73  72 E9        29.96R
GUTHRIE        CLOUDY    85  72  65 E10G17    29.94R HX  91
$$

OKZ008-013-054>072-180400-
NORTHEAST OKLAHOMA

CITY           SKY/WX    TMP DP  RH WIND       PRES   REMARKS
TULSA          CLOUDY    82  73  74 E6        29.96R
TULSA/JONES    CLOUDY    83  71  67 E7        29.96R
PONCA CITY     PTCLDY    79  73  82 E9        29.97R
BARTLESVILLE   PTCLDY    76  72  87 NE5       30.01R
MUSKOGEE       CLOUDY    80  74  81 SE8       29.98S
$$

OKZ032-040>043-046>053-073>077-180400-
SOUTH CENTRAL/SOUTHEAST OKLAHOMA

CITY           SKY/WX    TMP DP  RH WIND       PRES   REMARKS
MCALESTER      CLOUDY    83  75  77 E7        29.95S HX  90
$$



ASUS44 KOUN 180310
RWROK

WEATHER ROUNDUP FOR OKLAHOMA
NATIONAL WEATHER SERVICE NORMAN OK
1000 PM CDT TUE JUL 17 2018

NOTE: "FAIR" INDICATES FEW OR NO CLOUDS BELOW 12,000 FEET WITH NO
      SIGNIFICANT WEATHER AND/OR OBSTRUCTIONS TO VISIBILITY.

OKZ001>007-009>012-014-015-017-180400-
NORTHWEST OKLAHOMA AND THE PANHANDLE

CITY           SKY/WX    TMP DP  RH WIND       PRES   REMARKS
GAGE           LGT RAIN  75  70  84 N12       30.03R
GUYMON         CLOUDY    79  64  60 NE3       30.05R
$$

OKZ016-021>023-033>039-044-045-180400-
SOUTHWEST OKLAHOMA

CITY           SKY/WX    TMP DP  RH WIND       PRES   REMARKS
LAWTON/REGL    CLEAR     89  59  36 MISG      29.91R
LAWTON/FT SILL CLEAR     90  63  40 S7        29.91R HX  91
FREDERICK      CLEAR     93  58  30 S10       29.89R HX  92
CLINTON        PTCLDY    93  53  25 S10       29.95R HX  90
HOBART         PTCLDY    90  57  32 S9        29.93R
ALTUS AFB      CLEAR     87  54  32 SE7       29.92R
$$

OKZ018>020-024>031-180400-
CENTRAL OKLAHOMA

CITY           SKY/WX    TMP DP  RH WIND       PRES   REMARKS
OKLAHOMA CITY  CLOUDY    84  73  69 E12       29.95R HX  90
OKC/WILEY POST CLOUDY    87  72  60 E12       29.95R HX  93
OKC/TINKER AFB PTCLDY    82  72  71 E8        29.95R
STILLWATER     MOCLDY    83  73  72 E9        29.96R
GUTHRIE        CLOUDY    85  72  65 E10G17    29.94R HX  91
$$

OKZ008-013-054>072-180400-
NORTHEAST OKLAHOMA

CITY           SKY/WX    TMP DP  RH WIND       PRES   REMARKS
TULSA          CLOUDY    82  73  74 E6        29.96R
TULSA/JONES    CLOUDY    83  71  67 E7        29.96R
PONCA CITY     PTCLDY    79  73  82 E9        29.97R
BARTLESVILLE   PTCLDY    76  72  87 NE5       30.01R
MUSKOGEE       CLOUDY    80  74  81 SE8       29.98S
$$

OKZ032-040>043-046>053-073>077-180400-
SOUTH CENTRAL/SOUTHEAST OKLAHOMA

CITY           SKY/WX    TMP DP  RH WIND       PRES   REMARKS
ARDMORE/DWNTWN CLEAR     88  61  40 CALM      29.92R
MCALESTER      CLOUDY    83  75  77 E7        29.95S HX  90
$$